コワルスキー彗星

C/2012 Q1 ( Kowalski )

English version
Home page
Updated on May 7, 2015

---------------------------------------------------------------------

・ プロフィール

発見日 2012年8月28日
発見光度 18.7等
発見者 R. A. Kowalski (Mount Lemmon)

・ 写真集

・ 軌道要素

Epoch 2012 Feb. 3.0 TT = JDT 2455960.5
T 2012 Feb.  9.10977 TT                                 MPC
q   9.4821687            (2000.0)            P               Q
n   0.00734111     Peri.  139.21878     +0.79065158     +0.60978939
a  26.2197386      Node   184.44937     -0.55158802     +0.74841515
e   0.6383576      Incl.   45.16937     +0.26574563     -0.26082882
P 134
From 167 observations 2011 Apr. 13-2014 Oct. 25, mean residual 0".5.

・ 光度変化

        m1 = 4.0 + 5 logΔ + 10.0 log r

---------------------------------------------------------------------

軌道要素はM.P.E.C. 2014-U124に掲載されたものです。
光度グラフはComet for Windowsで作成したものです。

---------------------------------------------------------------------

Copyright(C) Seiichi Yoshida (comet@aerith.net). All rights reserved.